Regional Weather Roundup
Issued by NWS

Home | Current Version | Previous Version | Text Only | Print | Product List | Glossary On
Versions: 1 2 3 4 5 6 7 8 9 10 11 12 13 14 15 16 17 18 19 20 21 22 23 24 25 26 27 28 29 30 31 32 33 34 35 36 37 38 39 40 41 42 43 44 45 46 47 48 49 50
227
ASUS44 KLIX 232213
RWRLA
LOUISIANA WEATHER ROUNDUP
NATIONAL WEATHER SERVICE NEW ORLEANS LA
400 PM CST THU NOV 23 2017

NOTE: "FAIR" INDICATES FEW OR NO CLOUDS BELOW 12,000 FEET WITH NO
      SIGNIFICANT WEATHER AND/OR OBSTRUCTIONS TO VISIBILITY.
      SKY/WX - SKY CONDITION AND SIGNIFICANT WEATHER.
      TMP - AIR TEMPERATURE.    DP   - DEWPOINT TEMPERATURE.
      RH  - RELATIVE HUMIDITY.  PRES - PRESSURE.
      HX  - HEAT INDEX.         WCI  - WIND CHILL INDEX.

*  THESE STATIONS ARE NOT NWS OR FAA STATIONS AND ARE NOT UNDER
   NWS QUALITY CONTROL.

LAZ040-048-061>063-065-066-069-232300-
SOUTHEAST LOUISIANA

CITY           SKY/WX    TMP DP  RH WIND       PRES   REMARKS
N.O. INTL ARPT MOSUNNY   63  31  30 N9        30.01S
N.O. LAKEFRONT SUNNY     63  33  32 N13       30.01S
N.O. DOWNTOWN* FAIR      61  31  32 VRB6      30.02R
RESERVE*       FAIR      63  26  23 N9        30.02S
SLIDELL        SUNNY     62  30  29 N5        30.00S
BATON ROUGE    SUNNY     60  26  27 N7        30.03F
BOOTHVILLE     SUNNY     61  40  45 N10       30.00R
BELLE CHASSE   SUNNY     61  35  37 VRB7      30.01R
BOGALUSA*      NOT AVBL
GALLIANO*      CLEAR     59  31  33 N10       30.02R
NEW ROADS*     FAIR      58  27  30 NW9       30.05S
GONZALES*      FAIR      62  27  26 N8        30.02R
HAMMOND*       SUNNY     61  28  29 N6        30.02S
HOUMA*         SUNNY     63  28  27 N9        30.02R
PORT FOURCHON* NOT AVBL

$$

LAZ041-044-053-054-232300-
SOUTHWEST LOUISIANA

CITY           SKY/WX    TMP DP  RH WIND       PRES   REMARKS
LAKE CHARLES   SUNNY     62  28  27 N8        30.06S
LAFAYETTE      SUNNY     60  28  29 N10       30.05S
PATTERSON      SUNNY     61  32  33 NW7       30.03S
SALT POINT       N/A      1  32 100 VRB6      30.02R WCI -10
NEW IBERIA     SUNNY     60  27  28 N10       30.05S
CHENAULT AIRPK SUNNY     63  28  27 N6G17     30.07S

$$

LAZ027-028-232300-
CENTRAL LOUISIANA

CITY           SKY/WX    TMP DP  RH WIND       PRES   REMARKS
FORT POLK      SUNNY     59  29  32 N6        30.06S
ALEXANDRIA INT SUNNY     61  23  23 N5        30.05F
ALEXANDRIA     SUNNY     60  21  22 NW6       30.06S

$$

LAZ001-002-232300-
NORTHWEST LOUISIANA

CITY           SKY/WX    TMP DP  RH WIND       PRES   REMARKS
SHREVEPORT     SUNNY     61  28  28 CALM      30.06F
BARKSDALE AFB  SUNNY     60  24  25 CALM      30.06F
DTN SHREVEPORT SUNNY     61  27  27 CALM      30.07F

$$

LAZ014-016-232300-
NORTHEAST LOUISIANA

CITY           SKY/WX    TMP DP  RH WIND       PRES   REMARKS
MONROE         SUNNY     58  25  28 CALM      30.08F
TALLULAH       SUNNY     56  25  30 N3        30.06F

$$





USA.gov is the U.S. government's official web portal to all federal, state and local government web resources and services.